STARLINK-32357

Last updated on Sun Oct 06 2024 00:02:04 GMT+0000 (Coordinated Universal Time)

1 61009U 24158V 24279.32951486 -.00001229 00000+0 -59303-5 0 9998 2 61009 53.1588 327.3603 0001589 122.0147 238.1025 15.67568999 5845
UTC large
Height (km)
Speed (km/s)
/
Latitude / Longitude
Inclination (degrees)
Orbital Period (minutes)
Azimuth
Elevation
Range (km)
Doppler Factor

Next 0 passes for location: London (51.5072 / 0.1276)

Sorry there are no passes over London.